Location: Usti nad Labem
(50.6670°N, 14.0330°E)
Time: 01:22:50
(UTC+01:00)

ISS - Visible Passes

Search period start: 23 January 2018 00:00
Search period end: 02 February 2018 00:00
Orbit: 402 x 407 km, 51.6° (Epoch: 23 January)

Date Brightness Start Highest point End Pass type
(mag) Time Alt. Az. Time Alt. Az. Time Alt. Az.
26 Jan -1.7 18:55:08 10° SSW 18:56:31 18° S 18:56:31 18° S visible
27 Jan -1.8 18:03:43 10° S 18:05:40 15° SE 18:06:34 14° ESE visible
27 Jan -1.0 19:38:26 10° WSW 19:39:14 16° SW 19:39:14 16° SW visible
28 Jan -3.1 18:46:18 10° SW 18:49:12 40° SSE 18:49:12 40° SSE visible
29 Jan -2.5 17:54:22 10° SSW 17:57:10 27° SSE 17:59:06 16° E visible
29 Jan -1.7 19:30:07 10° WSW 19:31:46 27° WSW 19:31:46 27° WSW visible
30 Jan -3.8 18:37:48 10° WSW 18:41:02 67° SSE 18:41:37 53° ESE visible
31 Jan -3.2 17:45:34 10° SW 17:48:44 46° SSE 17:51:24 13° E visible
31 Jan -2.4 19:21:51 10° W 19:24:03 39° W 19:24:03 39° W visible
01 Feb -3.9 18:29:26 10° WSW 18:32:43 87° N 18:33:49 39° ENE visible
01 Feb -0.5 20:06:00 10° W 20:06:28 13° W 20:06:28 13° W visible
